DELTA 1 DEB

Satellite information

Favourite Embed

Satellite Type and Status

DEBRISIN ORBIT

Key statistics

Satellite DELTA 1 DEB at a glance.

Uptime

17399

Days in orbit

Revolutions

≈ 14.1

Per day

Orbit

SSO

Sun Synchronous Orbit

Inclination

99.1

Latest

Satellite identification and parameters

Extended collection of information and parameters for DELTA 1 DEB.

Object identification

Identified? True

Debris? True

Object name: DELTA 1 DEB

International designator: 1978-026BS

Object number (NORAD): 12225

Object ID (CCSDS): 12225

Country: UNITED STATES OF AMERICA (US)

Current information (Y/N): Y

RCS size: SMALL

Orbital parameters

Period: 102.212 minutes

Inclination: 99.1293 deg

SMA: 7241.503 km

Apoapsis: 889.191 km

Periapsis: 837.546 km

RAAN: 214.91 deg

Eccentricy: 0.0035659

Argument of periapsis: 232.8142 deg

Mean anomaly: 188.3816 deg

Mean motion: 14.08833475 rev/day

Mean motion (dot): 0.00001086 rev/day2

B* drag term: 0.00065159 1/REarth

Two-line elements (TLE)

Creation date: Oct. 21, 2025, 11:56 p.m.

Reference frame: TEME

Reference center: EARTH

Epoch: Oct. 21, 2025, 5:08 p.m. UTC

TLE line 0: 0 DELTA 1 DEB

TLE line 1: 1 12225U 78026BS 25294.71418274 .00001086 00000-0 65159-3 0 9995

TLE line 2: 2 12225 99.1293 214.9100 0035659 232.8142 188.3816 14.08833475286671

Live tracking on map

Real-time ground track for satellite DELTA 1 DEB.

In-orbit conjunctions

A list of the most updated potential collisions computed for object DELTA 1 DEB.

Target Orbit TCA Probability of collision Miss distance Type
COSMOS 1375 DEB LEO 2025-06-29 21:48:56 0.0001501532 281.0 (m) DEBRIS
COSMOS 1579 COOLANT LEO 2024-11-15 17:09:00 0.0002651684 292.0 (m) DEBRIS
THORAD AGENA D DEB LEO 2024-06-12 13:27:30 0.0001500247 147.0 (m) DEBRIS

Associated space launch

Earth observation satellite

DELTA 1 DEB was lifted into orbit during the mission ‘Delta 2910 | Landsat 3’, on board a Delta 2910 space rocket.

The launch took place on March 5, 1978, 5:54 p.m. from Space Launch Complex 2W.

For more information about the launch, click the button.

Launch to space Delta 2910 | Landsat 3
Delta 2910 | Landsat 3

Agency: N/A

Status: Launch Successful

Launch date: March 5, 1978, 5:54 p.m. UTC

Rocket: Delta 2910

Launch pad: Space Launch Complex 2W

Location: Vandenberg SFB, CA, USA

...

Latest news about this satellite

There are no fresh news available about this satellite. Check back as we update our databases every day.


Newsletter sign-up

Weekly statistics, charts and insights to help you stay on top of the space industry.